{"data":{"norad_id":54681,"intl_designator":"2022-166AR","name":"ONEWEB-0714","alt_names":[],"object_type":"PAYLOAD","status":"ACTIVE","operator":null,"country":"UK","launch_date":"2022-12-08","launch_site_code":"AFETR","launch_vehicle":null,"mission":null,"orbit_class":"UNKNOWN","rcs_meters":null,"size_class":null,"mass_kg":null,"dimensions":null,"purposes":["comms"],"wikipedia_slug":null,"has_3d_model":false,"image_url":null,"decayed_at":null,"tle_current":{"epoch":"2026-09-20T04:08:04.528032Z","epoch_age_seconds":50249,"freshness":"FRESH","line1":"1 54681U 22166AR  26263.17227463  .00000063  00000+0  12063-3 0  9995","line2":"2 54681  87.9285 225.0715 0002216  73.1999 286.9378 13.21826682184089","mean_motion":13.21826682,"eccentricity":0.0002216,"inclination_deg":87.9285,"raan_deg":225.0715,"arg_perigee_deg":73.1999,"mean_anomaly_deg":286.9378,"bstar":0.00012063,"rev_number":18408,"period_min":108.9401522612,"perigee_km":1176.0763846501,"apogee_km":1179.4251541095,"semimajor_km":7555.8877693798,"source":"CELESTRAK","updated_at":"2026-09-20T09:00:44.749431Z"}}}